Tracking 30970 objects as of 3-Jul-2025
HD Live streaming from Space Station
objects crossing your sky now

STARLINK-31728

Track STARLINK-31728 now!
10-day predictions


NORAD ID: 59496
Int'l Code: 2024-071N
Perigee: 489.2 km
Apogee: 491.2 km
Inclination: 43.0 °
Period: 94.3 minutes
Semi major axis: 6861 km
RCS: Unknown
Launch date: April 13, 2024
Source: United States (US)
Launch site: AIR FORCE EASTERN TEST RANGE (AFETR)
Your satellite tracking list
Your tracking list is empty




NASA's NSSDC Master Catalog

Two Line Element Set (TLE):
1 59496U 24071N   25183.91667824  .00028163  00000-0  10292-2 0  9995
2 59496  42.9995 310.3072 0001471 271.7437 187.2178 15.27575215  5798
Source of the keplerian elements: AFSPC